Dewpoint
64 65 68 69 69 71 70 69 70 69 71 69 70 71 70 69 71 70 68 68 64 64 64 62 65 64 62 59 60 63 64 64 65 63 64 66 68 74 75 75 74 74 74 75 75 76 76 76 76 76 76 77 77 77 77 77 78 78 78 78 78 79 79 78 78 78 79 79 80 80 80 80 80 80 80 80 80 79 79 79 79 79 79 79 78
64 66 67 70 71 71 71 71 69 70 70 70 71 69 69 69 68 69 66 67 65 64 64 60 59 59 62 60 59 58 65 63 65 63 65 66 67 72 75 75 75 74 74 75 76 76 77 77 77 77 77 78 78 78 78 78 78 78 78 78 79 79 79 79 79 79 79 80 80 80 80 80 80 80 80 80 79 79 79 78 78 78 78 78 78
66 68 68 70 71 72 70 71 69 69 71 70 71 71 69 68 67 67 68 67 65 62 63 63 62 57 60 58 59 62 62 65 61 60 58 64 67 68 74 75 74 75 75 76 76 77 77 77 77 78 78 78 78 78 79 79 79 79 79 79 79 79 79 79 80 80 80 80 80 80 80 80 80 80 79 79 79 78 78 78 78 78 78 78 78
71 70 71 71 71 70 70 71 70 70 72 70 70 71 72 70 69 72 71 68 65 62 63 57 60 57 60 58 60 60 60 62 58 59 60 64 67 67 68 70 76 75 76 77 77 77 77 77 78 78 78 78 78 78 78 78 78 78 79 79 79 79 79 79 80 80 80 80 80 80 80 80 80 79 79 79 78 78 78 78 78 78 78 77 76
72 74 72 70 70 71 71 72 72 73 72 71 71 72 70 68 69 68 66 65 62 61 55 57 58 60 58 57 58 59 61 62 63 61 58 61 63 62 66 66 67 77 77 77 77 78 78 78 78 78 78 78 79 79 79 79 79 78 78 78 78 79 78 78 79 79 80 80 81 80 80 79 79 79 79 78 78 78 78 78 78 78 78 76 75
73 73 73 70 71 71 71 70 73 73 73 72 70 70 69 69 66 66 65 64 61 61 56 57 54 57 58 57 59 61 61 58 59 59 59 60 61 65 63 64 66 69 70 78 78 78 78 79 79 79 79 79 79 79 79 80 80 80 80 79 79 79 79 79 79 80 81 81 81 80 79 79 79 79 78 78 78 78 77 77 77 78 77 76 76
75 74 71 72 68 68 70 72 73 74 72 71 71 70 70 69 66 67 67 64 61 62 59 60 57 59 61 61 59 59 61 59 59 59 58 62 63 61 65 63 63 66 66 67 78 78 77 78 78 79 78 79 79 79 79 79 80 80 79 79 80 80 80 81 81 81 81 81 80 80 79 78 79 79 78 77 78 78 77 78 77 77 77 76 75
75 75 70 70 67 70 70 73 74 73 72 71 73 71 70 68 68 67 67 63 62 61 62 61 60 58 60 61 61 61 60 60 60 57 58 62 63 63 64 65 67 67 69 67 70 71 78 79 78 77 77 77 77 77 76 77 77 78 78 79 80 80 81 81 81 81 81 80 80 79 78 78 79 78 78 77 77 77 77 77 77 77 76 75 75
75 76 73 70 70 70 69 71 73 73 71 71 70 70 71 64 70 70 69 67 60 56 60 62 59 58 58 57 58 62 61 63 61 61 57 63 63 59 61 64 65 68 69 67 68 68 75 78 78 78 77 76 76 77 77 77 78 78 78 78 79 80 81 81 81 81 80 80 78 78 78 79 79 78 78 77 77 77 77 77 77 76 75 75 75
76 75 74 70 70 71 71 72 73 73 72 71 71 70 70 68 69 70 70 68 63 60 58 58 53 53 58 56 60 58 60 62 63 64 62 61 63 62 62 60 62 62 63 66 65 68 69 74 77 77 78 77 77 77 77 77 78 78 79 79 80 80 80 81 81 80 80 79 78 78 79 79 78 78 78 78 77 77 77 77 76 75 75 75 74
75 75 74 70 70 71 73 73 74 72 72 72 71 72 71 69 69 70 71 69 66 64 63 60 54 54 54 56 57 61 63 60 63 62 59 58 58 62 58 65 63 64 67 67 64 66 68 72 71 71 74 78 77 77 77 78 78 79 79 79 79 80 80 80 80 80 79 79 77 78 79 79 78 78 78 77 77 77 77 76 76 75 75 74 73
75 75 75 74 72 71 73 73 73 73 73 72 71 70 71 71 70 67 69 68 68 66 64 63 60 60 60 59 59 60 61 62 62 62 63 61 62 64 62 62 65 67 64 65 66 64 67 69 71 69 68 73 78 77 77 78 78 78 79 80 80 81 80 80 80 80 79 78 77 79 79 79 78 78 78 77 77 77 77 76 75 75 74 73 72
76 75 74 74 74 73 74 74 73 74 74 73 72 71 72 71 70 72 67 68 66 64 64 62 62 60 63 60 61 61 60 62 61 60 61 61 62 63 64 64 66 66 68 66 66 66 66 69 69 70 70 71 74 79 79 78 79 78 80 80 80 80 80 79 79 80 80 78 78 79 79 79 78 78 78 77 77 77 76 76 75 74 73 72 71
76 76 75 74 74 72 73 74 74 75 74 73 73 72 72 71 68 68 68 65 67 64 64 63 64 59 59 60 59 60 62 60 60 59 60 61 62 65 66 62 63 64 66 68 69 67 66 68 71 69 72 73 71 71 74 74 77 79 79 79 79 78 78 79 79 78 78 78 78 78 79 78 78 78 78 77 77 77 76 76 75 74 73 71 71
75 75 75 73 73 74 73 73 75 74 74 73 72 73 72 70 71 67 65 67 66 66 68 66 61 61 64 62 61 59 64 63 62 62 60 61 60 63 64 62 62 65 67 69 70 71 66 69 70 72 73 74 72 71 72 74 75 75 79 79 78 78 77 78 78 78 78 78 78 78 78 78 78 78 78 77 77 77 76 75 74 73 72 71 71
73 73 73 75 75 74 73 72 74 74 74 74 73 72 72 71 70 69 69 66 64 66 67 69 66 63 63 62 61 58 59 63 63 63 61 63 60 61 61 61 63 66 68 68 65 69 71 71 69 71 73 74 74 71 71 72 73 76 76 79 77 78 78 78 78 79 79 78 78 78 78 78 78 78 78 77 76 77 76 74 73 72 72 71 71
73 74 74 76 77 75 75 74 74 73 73 72 72 70 70 71 71 72 70 66 65 65 68 66 67 67 66 62 63 62 62 61 59 65 61 61 61 60 63 63 63 65 66 66 67 68 67 67 71 70 72 73 73 72 72 73 75 76 78 78 78 78 77 77 78 78 79 78 77 77 77 77 77 77 77 77 76 76 76 74 73 72 71 71 71
74 74 74 75 76 76 75 74 73 73 71 71 71 69 72 70 71 69 70 71 70 67 65 69 66 70 69 66 66 62 63 63 62 63 67 64 61 60 63 63 63 64 68 67 65 66 70 69 70 70 71 71 71 73 73 74 75 76 77 78 76 76 77 78 78 78 78 78 77 77 77 77 77 77 77 77 76 77 76 74 72 71 71 71 70
73 74 75 76 77 77 76 74 73 73 73 72 71 68 68 69 70 70 69 71 72 69 67 63 68 69 65 65 68 67 64 64 63 62 63 63 64 62 61 63 63 62 64 66 65 67 71 70 67 66 69 72 71 71 75 75 75 78 78 76 77 77 78 78 78 78 78 78 77 77 76 76 76 76 76 77 76 76 76 74 72 71 71 70 70
73 75 76 75 76 76 77 76 74 73 72 71 70 69 71 72 72 72 72 73 72 70 68 65 64 67 67 65 66 67 67 66 65 61 61 62 64 63 63 63 63 62 64 65 65 66 69 69 66 66 68 71 72 73 74 74 75 75 75 76 77 77 78 77 77 78 78 78 77 76 76 76 76 76 76 76 76 76 76 74 73 72 70 70 70
74 74 74 74 75 75 77 76 75 74 73 70 70 70 70 71 74 73 73 73 72 71 71 70 66 65 68 70 66 63 62 65 66 66 65 65 63 64 64 63 64 64 65 70 69 66 66 67 69 68 71 73 74 74 73 75 74 75 74 77 77 77 77 77 77 77 78 78 77 76 76 76 76 76 76 76 76 76 76 75 73 72 71 70 70
73 74 75 74 74 75 75 74 74 71 71 72 72 71 71 73 72 70 71 72 72 71 72 71 69 68 65 68 69 67 67 66 65 64 63 66 64 63 63 63 64 64 67 65 65 67 67 68 67 67 69 72 73 73 75 75 74 69 72 76 77 77 77 77 77 77 77 77 77 75 75 75 76 76 76 75 76 76 76 75 74 72 71 71 70
70 73 72 72 72 73 72 72 72 73 73 72 71 69 69 70 69 72 73 73 72 73 71 71 70 71 68 69 69 64 66 66 67 67 66 65 65 63 62 63 63 63 66 66 68 67 67 67 67 66 71 72 72 73 74 74 74 75 75 76 76 77 76 76 77 77 76 77 76 75 75 75 75 75 75 76 76 76 76 75 74 73 71 71 70
71 70 71 68 71 71 72 71 73 72 72 72 71 70 69 69 69 70 72 73 74 73 72 71 70 71 70 66 67 65 67 66 65 66 66 67 66 66 64 65 65 63 63 69 66 66 67 67 67 68 69 71 73 74 74 73 76 76 74 73 76 76 76 76 76 76 76 77 76 75 75 74 75 75 75 75 76 76 76 75 74 73 72 71 70
70 69 68 69 71 72 72 71 73 74 75 75 73 74 73 71 71 70 71 73 73 74 73 72 71 70 68 67 66 65 66 67 67 68 66 66 67 66 65 64 64 63 67 68 67 65 66 66 67 67 69 71 70 74 72 71 71 76 77 73 76 76 75 75 76 76 76 77 76 75 74 75 75 75 75 75 75 75 76 75 74 73 72 71 70
68 69 68 68 68 70 72 73 75 76 76 76 75 74 74 73 73 73 71 73 73 75 73 72 72 71 70 69 68 67 67 67 67 66 67 65 65 64 67 66 65 62 64 67 68 64 64 65 66 70 69 71 72 73 73 70 71 76 77 76 76 75 75 75 76 76 77 76 75 75 74 74 75 74 75 75 76 75 76 76 75 73 73 71 70
67 69 71 70 70 71 72 73 74 75 76 75 72 74 75 75 74 75 74 73 74 73 71 70 68 69 70 70 70 69 66 66 65 66 66 66 66 65 67 67 64 64 64 65 65 64 63 64 65 70 70 74 74 74 73 71 73 76 76 75 73 73 74 74 75 76 76 75 74 74 74 74 74 74 75 75 76 75 76 76 75 74 73 72 71
70 70 69 71 71 70 72 72 74 73 75 75 75 73 75 73 73 74 74 70 72 74 73 71 70 70 70 71 70 67 67 67 67 66 66 67 67 68 69 70 69 67 65 65 65 63 63 68 67 70 70 73 73 73 73 72 70 76 76 73 74 75 73 74 74 75 74 73 73 73 73 73 74 74 74 75 76 76 76 76 75 74 73 72 71
68 70 70 72 72 72 71 70 72 73 74 74 73 74 75 73 71 74 73 72 73 74 72 71 71 68 68 68 68 69 69 71 70 68 70 72 70 70 69 69 71 70 68 67 68 64 64 63 64 76 73 73 74 72 72 72 74 73 70 73 73 75 74 73 73 74 74 73 72 72 72 73 73 73 73 74 75 76 76 76 75 75 74 72 72
69 67 69 70 72 73 72 72 72 72 73 72 73 73 74 73 73 74 73 75 75 75 74 72 71 70 69 68 69 69 70 69 68 68 70 73 70 70 70 70 71 71 70 69 68 67 65 65 64 71 76 73 71 70 69 71 75 73 71 72 72 72 73 73 73 73 73 72 71 71 72 71 72 72 71 72 73 74 75 76 76 75 74 73 72
71 72 72 70 71 71 73 72 72 72 72 72 73 74 75 75 74 72 73 76 75 74 75 74 71 70 71 71 72 71 71 70 70 68 69 70 70 70 70 71 72 73 73 72 70 70 69 67 65 65 66 70 69 70 69 71 72 73 73 73 73 73 74 74 74 72 72 71 70 70 70 70 70 71 69 70 71 73 74 75 76 75 75 74 73
69 70 70 70 69 69 69 69 69 70 70 70 71 73 74 75 73 71 71 75 75 75 74 72 70 70 73 72 73 72 71 70 70 69 69 70 72 71 71 72 73 73 74 72 72 71 69 67 67 67 67 70 71 71 72 70 71 75 74 73 75 75 74 72 73 72 71 71 71 70 70 69 69 69 70 69 70 72 73 74 75 76 75 75 74
69 68 69 70 71 70 69 71 69 72 73 73 73 74 75 76 76 75 75 75 76 74 74 74 73 72 73 74 74 74 74 73 72 72 72 71 71 71 72 71 70 71 72 73 71 70 71 70 69 67 68 71 70 72 72 70 70 72 73 73 74 72 71 71 76 70 71 70 70 70 69 69 68 68 69 69 69 71 71 71 72 72 73 75 75
69 68 70 69 70 70 70 70 71 71 73 76 74 73 74 75 74 71 71 75 77 76 74 75 74 72 72 74 73 72 73 73 72 72 72 76 74 68 68 69 69 70 73 72 71 71 70 70 68 70 69 70 69 72 73 71 71 73 70 71 71 71 71 72 72 74 70 71 70 69 69 68 68 67 68 67 68 69 69 69 69 69 70 72 73
67 68 67 68 70 72 72 72 73 73 75 74 74 74 75 75 75 73 70 71 73 74 73 74 72 75 73 74 74 74 74 73 74 73 73 73 73 72 70 70 71 69 71 74 74 72 71 70 72 70 70 71 71 72 72 71 73 70 71 70 69 67 68 69 69 68 70 71 70 70 69 69 68 68 67 67 68 68 67 68 67 67 68 69 68
63 67 67 67 70 73 73 73 73 75 75 75 75 75 75 75 74 74 74 73 73 73 73 72 73 74 74 74 74 74 74 74 74 73 72 72 71 72 72 73 74 73 73 73 74 74 72 71 72 71 71 71 71 71 70 70 67 68 69 70 69 68 68 67 68 67 68 69 71 70 69 68 67 67 66 66 66 66 66 65 66 66 66 67 67
63 63 68 69 70 72 73 73 73 74 74 75 75 74 73 75 74 74 74 74 74 74 73 74 75 75 75 73 74 74 74 74 73 72 71 73 72 72 71 71 72 73 72 73 74 74 73 72 70 71 71 71 70 71 70 67 67 68 70 70 67 68 69 67 66 65 68 69 70 70 68 69 68 67 66 66 65 65 65 65 64 64 64 64 64
63 62 65 69 71 73 74 73 73 74 74 74 74 76 76 75 74 73 73 73 73 73 73 73 76 76 74 74 74 74 74 73 72 73 73 73 72 70 71 72 72 73 74 74 74 73 72 71 70 68 70 69 70 70 69 68 66 66 67 67 67 68 68 67 65 67 67 66 67 69 68 68 67 65 66 66 65 65 65 65 65 63 62 62 61
61 61 61 67 71 73 74 74 72 73 74 74 75 78 77 76 74 74 73 74 74 73 73 72 75 75 75 74 74 75 74 73 72 72 73 74 73 71 72 73 73 73 72 72 72 71 71 69 68 69 68 68 69 66 67 68 67 67 66 66 67 67 68 69 68 67 65 66 69 69 68 69 69 68 65 64 64 64 65 65 64 63 62 60 60
61 60 60 61 67 70 71 73 74 74 74 73 76 78 77 75 73 72 73 73 73 73 73 74 75 75 75 74 72 73 73 74 74 74 73 73 73 73 72 73 73 72 72 71 71 70 69 68 66 65 66 66 66 66 65 67 66 67 67 67 67 66 67 69 69 67 67 68 67 67 69 69 68 70 66 65 65 64 64 65 65 64 62 61 62
60 61 61 60 61 65 69 71 74 74 72 70 75 77 77 75 74 72 72 71 72 72 72 72 74 75 75 74 73 73 74 74 74 73 74 73 72 73 74 73 74 73 73 71 70 69 67 66 65 64 63 64 66 66 65 66 67 66 68 68 68 68 68 67 69 67 67 67 67 67 65 66 67 67 66 66 68 68 64 64 64 65 63 62 62
66 66 66 64 62 61 64 70 72 72 68 69 76 76 75 74 74 72 71 73 73 73 73 74 74 74 74 74 74 72 74 74 74 73 73 72 73 73 74 74 73 73 71 69 68 66 66 64 63 63 62 63 64 67 67 67 68 69 68 68 67 68 68 67 67 67 66 67 67 68 65 66 66 65 64 64 63 63 63 63 64 62 62 62 62
69 70 69 66 65 62 61 64 67 69 68 67 75 70 71 73 74 73 73 74 74 74 74 74 74 74 74 74 74 74 75 74 74 72 71 70 70 70 70 70 70 71 70 66 66 66 65 63 64 64 64 65 65 66 66 66 67 68 67 68 67 67 65 65 63 66 67 68 70 67 66 67 67 64 64 63 62 62 61 64 62 61 61 61 61
72 70 68 68 69 66 64 62 64 67 65 73 68 69 70 70 72 72 72 72 72 73 74 74 74 74 74 72 71 72 73 73 72 71 69 69 69 69 69 69 69 69 69 71 68 65 66 65 64 65 65 65 65 65 65 66 67 67 68 68 68 66 65 64 63 63 66 68 68 66 63 65 67 63 63 62 62 62 63 62 62 61 60 61 60
71 72 73 70 70 69 67 69 69 67 68 68 67 68 68 68 69 73 71 73 75 75 75 73 74 74 74 73 71 70 72 72 71 71 70 68 69 69 69 69 69 68 66 66 68 67 65 66 65 65 65 65 65 65 65 66 66 66 65 64 68 67 65 62 62 61 64 67 67 65 61 61 64 65 62 61 62 62 62 62 62 61 60 60 60
73 72 71 72 71 72 71 70 72 68 70 68 67 67 67 67 68 71 73 74 74 73 74 74 75 75 74 74 72 71 71 71 71 70 69 69 69 69 69 69 69 68 67 68 67 67 67 66 66 65 66 66 65 66 67 67 66 65 64 63 65 67 66 63 63 64 64 63 64 64 61 59 60 64 63 62 61 61 66 63 61 61 60 60 59
74 74 73 73 73 73 72 71 71 70 65 64 63 65 65 66 67 70 73 74 74 74 74 75 75 74 73 72 71 70 70 70 70 69 67 67 67 67 68 67 65 64 64 64 66 66 65 65 64 65 65 66 66 66 66 65 66 66 65 65 65 65 66 67 64 63 59 61 64 64 61 59 59 60 63 63 60 61 61 61 61 62 61 61 60
75 75 75 74 73 73 72 72 72 70 63 60 61 62 62 63 66 70 72 73 73 73 72 72 72 72 71 70 69 69 68 68 69 68 67 66 67 66 65 63 62 60 60 61 59 61 65 65 65 63 62 63 64 65 65 65 66 66 63 61 61 62 61 59 58 59 55 55 59 63 61 58 59 55 58 64 62 60 61 61 62 63 62 61 60
75 76 75 75 74 74 74 73 73 70 66 61 59 60 60 61 65 70 72 73 72 70 70 69 69 69 69 69 68 67 67 68 66 64 66 67 67 64 63 62 60 59 59 57 59 60 60 59 60 61 61 61 61 59 59 60 64 64 61 58 57 57 57 56 54 56 56 53 53 59 61 54 56 55 53 52 63 61 60 61 62 63 62 61 59
74 75 75 75 75 75 74 74 73 71 68 62 58 58 59 60 67 72 73 71 70 69 68 68 68 67 67 67 67 68 67 66 64 63 64 68 67 65 63 61 60 59 58 58 58 60 61 61 61 61 61 61 62 60 59 59 59 60 60 57 56 55 54 54 53 52 55 53 51 56 61 53 52 54 51 52 55 58 53 55 60 58 61 61 59
75 75 74 74 73 73 73 73 70 70 67 63 57 58 58 59 65 73 71 70 68 68 67 67 67 67 66 66 65 65 66 66 60 62 64 67 65 63 63 62 61 59 58 59 59 58 58 57 58 58 58 57 57 57 57 59 58 57 54 54 52 54 53 52 51 52 49 50 51 59 59 56 53 50 51 50 47 49 49 49 54 57 54 56 62